User: anonymous   Login
Location: Équennes
(49.7375°N, 1.9622°E)
Time: 13:03:01
(UTC+00:00)
Language:

FENGYUN 1C DEB - Orbit

View from above orbital plane
View from above orbital plane
View from above satellite
View from above satellite

Ground track
Ground track

The orbit data is extracted from the following two-line orbital elements,

1 37014U 99025ECW 24053.51622241  .00009141  00000-0  33509-2 0  9994
2 37014  98.9591 148.3330 0032295 120.6983 239.7389 14.32736522726887
Epoch (UTC): 22 February 2024 12:23:21
Eccentricity: 0.0032295
inclination: 98.9591°
perigee height: 759 km
apogee height: 806 km
right ascension of ascending node: 148.3330°
argument of perigee: 120.6983°
revolutions per day: 14.32736522
mean anomaly at epoch: 239.7389°
orbit number at epoch: 72688

The dashed part of the orbit path shows where the satellite is in the earth's shadow,  

DLR